STRIX-ALPHA (47253 NORAD) Tracking and Keplerian Element Data
This shows tracking and keplerian element data for the satellite.
Feedback or suggestion? Click here.
Element | Value |
Catalog | 47253 |
Name | STRIX-ALPHA |
Epoch Orbit | 556 |
Epoch Day | 21.05689212 |
Epoch Year | 2021 |
RAAN | 277.8788 |
Inclination | 97.3735 |
Eccentricity | 0.0013941 |
Argument of Perigee | 164.2745 |
Mean Anonmoly | 306.6221 |
Mean Motion | 15.20783498 |
Decay Rate | 1.313E-05 |
L1 | 1 47253U 20098A 21021.05689212 .00001313 00000-0 62585-4 0 9997 |
L2 | 2 47253 97.3735 277.8788 0013941 164.2745 306.6221 15.20783498 5564 |
Live tracking and technical data element details for STRIX-ALPHA (NORAD 47253). STRIX-ALPHA can be tracked NOW for your location showing map with azimuth and elevation plus other details from your city location.
Track the satellite on the map from your city or location and see movement details for azimuth, elevation, latitude, longitude, range, height, and movement on the map or in text.
IsCatalogInMostPopularTable: catalog: 47253, numindb: 13
Update: records affected: 1
GetName: 47253 STRIX-ALPHA
Hit Count: updated at: Sat, 23 Jan 2021 18:45:24 GMT